RH
26 28 38 34 34 32 35 29 25 20 19 19 17 17 27 32 29 28 31 32 31 26 26 29 26 25 25 28 27 28 40 38 27 21 23 25 23 24 24 28 29 32 37 34 38
21 22 36 31 30 30 32 29 24 18 20 17 17 28 36 35 33 30 27 26 28 24 30 31 28 27 32 29 32 39 44 30 23 22 24 26 26 30 30 34 35 40 37 35 32
22 17 30 32 34 30 30 30 24 17 18 17 24 31 37 41 29 27 26 26 24 24 32 37 35 26 26 28 29 32 31 28 23 22 22 24 28 31 31 41 43 47 40 32 31
20 20 33 35 34 30 28 30 24 21 17 20 26 31 36 44 29 22 24 24 27 29 27 27 24 24 29 29 27 28 26 24 22 24 22 25 32 40 39 44 36 36 34 32 34
23 34 34 35 31 28 27 29 24 27 30 30 31 33 34 29 25 21 23 22 22 23 25 25 26 26 27 25 24 27 21 21 24 26 29 31 37 38 39 35 31 30 31 34 35
29 34 36 34 29 27 30 28 21 22 28 28 30 31 24 31 22 19 22 22 21 22 25 24 25 25 26 26 25 23 23 24 23 25 26 32 34 33 35 32 33 32 33 31 32
31 34 36 31 28 28 28 24 19 20 25 26 23 21 25 24 19 16 15 22 21 22 23 24 23 22 26 25 26 23 24 25 26 21 26 27 39 40 32 31 34 36 30 27 28
31 34 34 30 26 25 23 21 21 23 24 26 22 20 25 20 17 16 16 20 20 21 22 20 20 24 26 26 27 28 30 36 30 26 27 26 53 39 32 33 37 36 33 25 25
33 36 33 30 28 29 25 24 25 27 29 32 26 20 24 19 20 18 17 16 20 20 22 21 22 29 31 32 36 38 37 35 33 26 26 33 51 38 33 32 36 36 33 28 28
33 36 36 31 31 30 30 29 27 27 29 25 24 22 25 27 20 18 17 19 21 22 25 28 35 34 38 40 45 38 39 35 35 28 39 44 47 40 38 35 39 36 33 32 34
35 35 35 32 32 32 32 35 27 28 25 30 28 28 25 22 21 18 19 18 23 30 34 34 34 39 34 29 28 30 32 31 30 33 48 46 45 42 36 35 37 38 38 38 39
31 35 33 33 34 35 34 39 36 27 31 26 24 25 24 23 23 21 19 24 32 37 32 33 36 32 29 31 32 31 31 33 29 38 44 45 49 38 32 34 38 41 42 44 43
23 33 32 33 28 27 33 47 44 33 37 26 25 24 24 21 24 26 26 26 31 34 33 32 29 29 27 35 37 36 31 32 33 43 45 44 53 44 33 37 39 42 45 46 46
21 29 31 32 30 35 41 41 38 36 33 33 26 23 20 25 23 24 26 24 29 33 32 33 29 31 30 32 36 36 30 34 38 40 50 46 62 59 40 45 44 50 56 55 51
22 30 33 32 36 34 37 38 41 28 30 28 26 20 20 23 22 28 26 27 36 31 27 31 32 34 32 32 34 35 37 39 37 44 41 43 59 66 41 52 49 52 53 53 52
22 27 35 38 42 45 36 35 32 22 32 28 26 29 25 28 32 33 38 34 34 34 34 33 27 30 31 31 29 32 36 32 41 47 45 40 46 68 52 48 52 54 56 54 50
25 26 29 34 41 41 37 30 28 37 27 29 28 29 32 33 36 42 50 57 58 36 54 45 34 35 31 33 32 39 39 32 26 36 32 40 57 59 42 43 46 54 57 54 52
29 27 40 42 47 45 36 29 32 34 36 32 29 32 36 35 41 50 54 66 58 54 62 57 35 40 36 31 35 39 42 35 28 30 30 53 63 49 41 41 43 46 52 53 62
32 28 29 48 51 44 39 52 37 37 35 32 32 35 39 38 39 54 64 65 59 57 54 62 44 38 35 30 32 34 52 40 50 50 54 81 40 38 35 43 48 54 57 64 72
36 32 38 37 42 33 54 59 48 44 40 34 34 36 40 46 42 54 59 56 57 52 51 52 60 40 37 32 33 36 34 34 52 48 47 52 79 59 52 56 55 62 68 72 74
35 41 41 44 40 57 54 54 45 42 39 36 38 41 45 45 44 57 62 57 53 54 43 44 53 40 36 45 46 44 46 42 43 55 63 72 53 41 46 52 60 64 65 80 73
45 39 46 42 55 82 70 52 42 43 44 42 45 42 44 46 50 60 56 60 51 50 46 42 56 54 42 38 32 35 34 41 39 34 50 63 53 39 41 47 51 60 71 79 72
51 55 51 48 48 77 57 58 56 47 49 45 46 42 41 47 52 62 65 51 45 37 33 36 44 43 27 27 25 30 28 24 36 48 48 52 44 32 43 50 50 62 85 83 74
56 42 52 69 64 64 60 57 57 48 47 46 46 42 44 48 51 67 70 54 40 40 42 40 47 37 29 25 34 35 35 31 34 49 47 51 49 31 41 50 51 61 90 89 76
75 57 55 52 51 57 57 56 55 50 46 45 46 45 44 50 49 56 65 50 36 39 36 35 33 38 36 37 36 36 36 34 39 36 51 38 44 42 49 53 58 77 80 78 81
65 67 67 62 51 53 54 50 55 56 49 46 49 46 44 46 44 49 47 45 38 35 36 44 38 43 36 40 40 42 37 37 35 36 41 43 55 46 48 62 68 87 83 84 82
58 52 59 67 59 53 54 52 52 53 47 48 49 49 46 44 41 39 41 42 36 39 46 47 49 51 46 46 44 56 40 35 34 34 42 61 55 54 63 71 74 87 84 89 86
Wind_Speed
6 5 5 6 5 5 5 6 7 7 9 12 14 15 15 12 10 5 4 3 3 4 4 5 4 5 4 3 4 3 5 2 2 2 2 5 5 6 4 11 16 8 9 11 18
6 4 3 6 5 3 5 7 8 8 11 14 15 14 11 8 6 10 9 5 2 1 1 5 4 6 3 3 3 5 4 4 1 1 2 5 7 6 8 11 12 9 20 23 31
7 5 3 6 4 3 7 8 10 10 13 14 13 10 4 0 3 5 10 8 3 2 3 5 4 2 4 3 2 2 4 3 1 1 2 5 10 10 4 12 7 8 12 22 33
9 6 4 6 3 5 9 10 11 11 13 12 9 5 3 2 4 7 7 7 6 4 5 4 3 3 3 3 3 2 1 2 1 5 4 6 6 21 19 6 7 8 7 21 23
8 6 6 5 5 9 11 11 11 11 10 8 5 3 3 5 2 7 6 5 4 4 4 3 4 2 2 2 2 1 2 1 8 18 15 25 18 13 14 8 10 16 21 18 21
7 7 8 8 10 13 12 13 12 11 9 6 5 5 3 11 7 8 5 6 5 5 6 6 2 1 1 2 2 2 2 4 7 9 6 13 6 6 8 8 11 14 16 17 20
8 8 10 13 14 14 14 15 14 13 12 10 11 9 9 4 8 8 12 2 4 6 3 3 1 3 0 1 5 2 4 4 5 4 7 14 15 10 7 5 12 12 15 16 23
9 9 11 14 15 15 17 17 15 12 9 8 9 7 5 6 9 17 13 2 3 2 3 4 3 3 4 3 7 6 5 4 6 8 5 3 5 8 7 8 12 14 11 14 21
8 9 11 14 14 15 16 14 11 9 7 4 4 5 3 10 14 17 10 3 3 5 6 4 5 4 8 4 5 7 2 5 4 9 1 8 5 5 8 11 15 13 12 13 14
7 9 12 12 12 12 14 15 13 7 4 6 7 5 8 5 12 15 6 9 6 4 6 9 6 4 6 7 2 2 3 3 3 5 19 19 12 7 9 14 10 11 12 14 15
6 9 13 14 12 9 4 1 4 7 13 4 1 5 3 8 5 22 15 6 7 9 5 6 9 6 6 5 2 2 1 1 3 6 10 13 12 9 7 12 11 11 11 13 13
6 9 13 12 8 3 3 4 5 6 5 6 3 3 3 4 6 23 17 6 8 5 3 6 6 6 3 4 5 3 3 3 1 7 11 9 11 9 8 6 7 9 12 12 14
4 8 13 10 5 2 7 9 6 4 6 4 3 3 3 6 5 10 9 3 5 7 8 8 4 5 5 6 8 4 4 1 4 5 9 14 5 5 4 5 8 8 6 10 13
4 5 12 8 1 7 5 7 3 1 5 11 7 7 7 2 6 11 11 1 7 3 2 6 4 4 5 3 3 5 1 2 5 5 4 6 1 4 2 7 9 9 9 9 12
5 3 9 9 5 6 6 3 1 2 5 8 6 5 7 8 3 11 14 7 5 4 4 2 4 6 6 3 3 7 8 4 1 4 3 3 3 2 3 8 6 7 9 10 10
4 4 8 6 4 6 9 2 1 5 2 3 4 6 4 7 6 6 8 9 2 5 6 1 1 3 3 3 2 7 5 5 4 3 2 3 3 3 2 3 4 4 8 9 12
4 4 5 4 4 9 7 3 5 6 3 4 3 3 4 6 6 8 7 10 5 4 7 6 3 5 3 5 5 10 8 4 5 5 5 2 6 2 2 1 3 5 8 8 11
5 8 10 7 9 9 3 5 6 1 1 1 2 3 4 5 5 8 3 6 7 6 4 5 5 6 9 4 2 4 4 4 4 4 5 6 2 3 4 0 3 4 7 7 10
6 6 5 5 5 4 5 5 4 2 1 1 3 5 5 4 4 6 5 3 2 6 4 6 4 5 4 4 2 4 6 2 1 1 2 3 2 5 2 4 6 7 8 8 10
4 4 5 4 4 4 5 4 1 1 1 1 2 1 1 6 4 5 3 2 5 3 0 1 3 3 5 3 5 6 1 4 4 5 6 2 3 1 5 8 8 9 8 8 7
2 4 4 3 3 5 4 3 3 1 1 3 2 3 3 2 3 2 0 1 2 5 4 2 3 4 2 5 2 5 4 6 2 3 3 4 2 3 3 7 8 9 7 9 11
4 3 3 2 4 2 3 5 3 2 6 3 4 3 3 2 2 2 2 2 4 1 2 1 4 3 2 1 2 3 3 4 4 5 3 2 4 3 3 6 7 8 6 8 9
3 2 3 2 4 2 1 4 4 2 4 2 2 1 1 3 2 2 3 2 4 3 1 1 2 3 6 4 3 5 1 1 3 3 4 2 4 4 6 7 5 7 5 6 9
3 3 4 4 1 8 6 3 3 3 3 3 3 1 3 3 5 4 2 0 2 2 3 1 2 4 5 3 1 5 3 2 3 2 2 5 8 11 9 13 14 13 4 6 9
3 1 1 2 2 5 4 4 5 3 2 3 3 2 3 3 2 3 2 1 2 2 2 3 1 1 3 3 2 2 1 1 3 2 3 5 6 8 8 11 9 5 9 12 11
4 4 3 3 3 6 2 3 5 3 1 0 4 2 3 4 2 5 5 3 2 2 2 3 1 2 3 1 3 2 3 5 3 2 6 6 8 5 7 7 10 5 10 12 11
3 3 4 3 2 3 2 4 5 7 2 4 4 4 4 3 4 4 4 4 3 4 2 2 2 3 4 5 2 4 4 2 2 4 5 4 6 6 12 12 14 7 9 10 10
Wind_Direction
40 47 53 38 36 61 93 116 110 105 115 124 122 118 113 100 77 57 34 339 339 340 353 348 25 357 14 43 43 103 63 57 34 126 256 352 48 29 45 65 52 44 36 349 10
32 39 55 31 22 64 116 125 117 107 115 120 121 121 120 115 60 45 10 357 353 52 23 20 5 2 30 28 25 78 91 196 250 166 92 48 55 328 55 27 33 21 20 24 37
26 33 40 4 8 113 135 137 132 119 121 125 127 128 120 47 50 345 10 25 40 64 350 339 330 45 36 19 21 122 145 202 349 249 84 102 52 13 97 42 17 18 13 28 43
30 40 32 353 72 131 141 147 138 123 122 129 130 116 67 96 69 349 4 17 31 14 350 343 8 42 45 25 8 35 225 222 359 13 96 56 74 56 61 79 45 37 32 41 41
32 40 16 65 102 133 143 140 133 135 131 128 119 91 48 48 41 350 4 357 15 5 10 30 47 45 31 348 5 111 338 33 70 74 85 82 71 92 61 55 56 54 47 42 40
40 31 67 75 105 127 133 128 131 137 133 122 117 108 77 72 337 350 350 11 21 24 37 34 20 327 65 5 79 304 340 350 70 107 115 102 52 74 39 28 44 46 47 41 37
41 63 76 96 110 119 123 125 127 124 116 107 101 100 70 66 12 29 15 325 26 34 51 34 7 60 184 45 330 354 66 72 33 88 132 111 38 67 56 47 58 41 45 38 30
42 81 96 107 109 114 119 122 122 120 108 102 96 68 88 26 26 14 2 84 8 45 30 22 359 86 43 327 19 35 48 41 9 7 34 79 72 35 30 64 51 43 37 35 26
52 96 109 116 115 111 112 111 113 107 90 99 61 71 10 3 359 356 353 356 51 63 60 28 62 71 11 43 30 16 54 22 14 22 82 67 110 39 29 59 51 38 31 25 17
69 112 120 124 122 118 115 109 95 73 64 56 45 47 360 308 349 1 26 31 36 47 30 33 45 61 23 40 92 317 356 336 36 19 69 76 90 56 35 62 55 42 28 19 13
83 124 126 123 119 123 119 94 26 12 32 88 144 124 311 345 351 16 7 8 28 48 68 13 56 25 339 4 344 240 200 7 91 14 71 90 99 76 66 63 53 41 25 16 6
92 138 138 128 114 94 28 69 119 151 74 28 55 50 35 3 29 1 13 64 39 55 339 36 37 335 228 16 17 40 91 359 12 105 98 132 98 89 60 58 59 40 23 7 358
93 149 155 138 101 26 104 110 98 124 90 3 351 30 345 32 55 345 23 54 73 52 44 89 325 326 17 14 9 357 123 151 235 78 61 126 125 108 54 64 52 35 8 11 3
69 142 172 161 139 120 93 119 79 111 79 334 349 358 360 26 55 21 5 75 37 73 91 75 338 25 25 33 17 344 165 275 235 153 204 208 250 140 115 42 31 11 5 352 349
50 119 164 178 155 142 151 147 33 91 61 323 337 323 356 81 299 349 10 37 67 5 85 262 360 15 27 341 341 258 316 256 200 163 116 184 91 118 10 21 2 352 349 343 338
43 145 141 164 140 150 150 146 39 45 76 23 8 358 36 21 15 333 20 45 91 65 38 31 336 53 290 297 59 292 20 30 52 86 359 42 136 37 49 314 314 324 328 325 342
82 109 174 152 142 157 152 57 40 84 329 354 8 10 91 11 29 28 29 34 45 36 15 339 342 325 18 11 16 19 24 354 360 7 243 323 52 196 185 330 319 316 318 324 343
102 90 87 104 126 143 126 55 74 156 73 311 35 64 64 10 18 15 47 32 20 46 64 24 352 15 339 52 309 34 91 103 299 293 289 354 116 213 192 123 331 305 305 310 334
126 81 71 64 119 134 74 59 175 181 115 73 42 55 2 3 99 76 39 22 20 25 77 18 303 339 21 9 26 326 48 190 260 358 335 133 41 337 4 301 299 301 316 314 333
147 87 51 57 116 85 76 132 126 339 12 115 105 26 75 343 52 61 32 313 336 48 208 102 326 356 302 39 18 88 156 23 14 326 311 309 167 293 314 309 318 320 319 329 332
140 68 18 84 87 53 102 125 126 57 46 53 133 100 75 54 62 67 159 336 350 324 94 115 110 298 9 27 313 348 36 48 108 133 251 299 251 131 273 293 311 313 325 336 345
106 76 14 104 53 45 91 131 151 67 24 53 91 95 108 92 71 108 141 45 341 313 60 104 125 286 239 327 28 81 119 116 113 287 237 199 272 173 248 291 296 301 333 338 338
105 137 31 108 125 86 126 73 68 71 41 45 96 57 83 107 77 103 107 45 10 48 131 183 74 359 342 9 20 65 45 155 114 91 219 186 272 205 309 311 303 332 352 325 330
97 91 350 52 57 122 130 112 104 30 82 60 110 83 95 91 35 151 111 348 18 61 67 111 122 165 204 235 93 297 334 229 136 146 276 246 302 325 318 329 331 338 347 336 338
30 173 203 141 13 104 101 132 124 124 50 45 59 59 139 121 102 119 98 115 20 353 41 75 119 281 259 346 262 274 310 108 119 187 184 281 292 294 301 314 307 332 339 337 338
132 130 35 70 75 92 45 154 132 133 83 260 136 69 34 113 122 188 136 181 192 5 54 15 217 35 327 31 317 164 163 107 123 249 268 284 295 246 292 306 315 326 340 339 338
136 101 98 324 77 94 176 154 156 129 41 60 132 104 66 107 109 97 85 82 131 155 132 81 116 68 269 348 37 322 210 157 234 234 223 257 257 299 318 325 322 335 340 336 336